Flag for Qatar Weather past 2 weeks in Al-Jamiliyah, Qatar

Now
90 °F

Clear.


Feels Like: 115 °F
Forecast: 87 / 104 °F
Wind: 12 mph from Southeast

Location: Al Udeid

Current Time: Aug 29, 2014 at 2:22:32 AM

Latest Report: Aug 29, 2014 at 1:58 AM


Visibility: N/A

Pressure: 29.56 "Hg

Humidity: 82%

Dew point: 84 °F

Location of Al-JamiliyahLocation

Historic Weather in Al-Jamiliyah — Graph

°F

Al-Jamiliyah temperature yesterday

Maximum temperature yesterday: 108 °F (at 12:58 PM)
Minimum temperature yesterday: 87 °F (at 4:58 AM)
Average temperature yesterday: 96 °F

Past Weeks' High & Low Weather Summary

 TemperatureHumidityPressure
High113 °F (Aug 16, 1:58 PM)87% (Aug 14, 4:58 AM)29.74 "Hg (Aug 14, 4:58 AM)
Low83 °F (Aug 15, 4:58 AM)14% (Aug 15, 1:58 PM)29.40 "Hg (Aug 16, 3:58 PM)
Average98 °F55%29.57 "Hg
* Reported Aug 14 12:58 AM — Aug 29 12:58 AM, Al-Jamiliyah, Weather by CustomWeather, © 2014

Note: Actual official high and low records may vary slightly from our data, if they occured in-between our weather recording intervals... More about our weather records

Advertising

Al-Jamiliyah weather history for previous 24 hours

 ConditionsComfort  
Time TempWeatherWind HumidityBarometerVisibility
12:58 AM
Aug 29
90 °FClear.10 mph82%29.56 "HgN/A
11:58 PM
Aug 28
90 °FClear.9 mph81%29.56 "HgN/A
10:58 PM91 °FClear.9 mph77%29.56 "HgN/A
9:58 PM92 °FClear.6 mph72%29.57 "HgN/A
8:58 PM93 °FClear.8 mph70%29.57 "HgN/A
7:58 PM93 °FClear.10 mph70%29.56 "HgN/A
6:58 PM96 °FSunny.12 mph60%29.55 "HgN/A
5:58 PM98 °FSunny.14 mph56%29.53 "HgN/A
4:58 PM101 °FSunny.15 mph46%29.51 "HgN/A
3:58 PM103 °FSunny.12 mph38%29.52 "HgN/A
2:58 PM105 °FSunny.17 mph41%29.52 "HgN/A
1:58 PM107 °FSunny.12 mph36%29.54 "HgN/A
12:58 PM108 °FSunny.1 mph21%29.55 "HgN/A
11:58 AM107 °FPassing clouds.3 mph25%29.57 "HgN/A
10:58 AM104 °FSunny.6 mph33%29.59 "HgN/A
9:58 AM101 °FSunny.6 mph45%29.61 "HgN/A
8:58 AM97 °FSunny.6 mph58%29.61 "HgN/A
7:58 AM93 °FSunny.7 mph73%29.61 "HgN/A
6:58 AM90 °FSunny.8 mph76%29.59 "HgN/A
5:58 AM87 °FFog.8 mph80%29.58 "Hg3 mi
4:58 AM87 °FFog.5 mph79%29.56 "Hg3 mi
3:58 AM88 °FClear.6 mph79%29.55 "HgN/A
2:58 AM87 °FClear.3 mph79%29.54 "HgN/A
Weather by CustomWeather, © 2014

See weather overviewHow to use our weather pages